Dewpoint
64 58 54 55 50 45 41 32 9 12 14 10 18 15 4 19 26 20 19 22 13 21 36 58 45 50 33 43 44 49 60 48 47 44 41 50 64 68 68 70 72 73 73 73 74 74 73 73 73 73 72 72 72 72 72 71 71 71 71 70 71 71 71 71 71 70 70 70 70 69 69 69 69 68 68 68 67 67 67 67 66 66 67 68 68 68 68 69 70 70 70 70 70 69 69 70 69
54 51 51 52 46 42 37 25 21 21 17 4 10 20 17 22 23 21 20 21 13 48 53 58 59 60 61 61 61 55 54 63 63 60 64 68 68 68 70 71 72 72 73 73 74 73 73 73 73 73 72 72 72 72 71 71 71 71 71 71 71 71 70 71 71 70 70 70 70 70 69 69 69 68 68 67 67 67 68 67 66 66 67 67 68 68 68 68 68 69 69 69 69 69 69 68 67
55 46 44 47 40 42 39 27 12 21 14 1 0 18 21 20 20 20 21 22 17 55 56 58 58 58 58 58 47 48 50 64 64 65 66 67 66 67 71 72 72 73 73 73 73 73 73 73 73 73 73 72 72 72 72 71 71 71 71 71 71 71 71 70 70 70 70 70 70 69 69 69 69 68 68 68 67 67 67 67 66 67 67 67 68 67 67 68 68 68 68 68 68 68 67 67 68
48 53 41 40 37 35 32 30 22 17 10 3 10 12 21 21 20 22 22 17 15 38 46 57 57 60 57 57 57 60 60 62 65 65 65 65 65 69 71 72 73 73 73 73 73 73 73 73 73 73 72 72 72 72 71 71 72 71 71 71 71 70 70 70 70 70 70 70 70 69 69 69 69 69 68 68 69 69 68 68 68 68 67 67 67 68 67 68 68 68 68 68 68 67 67 68 69
45 51 46 36 32 33 32 31 25 18 10 18 8 9 25 20 16 15 12 11 11 19 47 57 56 60 61 59 61 54 56 64 65 66 66 67 70 71 71 72 72 72 72 73 73 73 72 73 73 73 73 73 72 72 72 71 71 71 70 71 71 70 70 70 70 70 70 70 69 69 69 69 69 69 68 69 69 69 69 69 69 69 68 68 68 68 68 68 68 68 68 68 66 66 68 69 69
40 42 45 42 35 33 27 24 26 21 10 15 16 16 18 18 16 17 17 14 11 26 53 56 54 57 60 62 63 59 63 60 64 65 66 67 70 71 72 72 72 72 72 73 73 72 73 73 73 73 73 73 73 72 72 72 71 71 71 71 70 70 70 70 70 70 70 70 69 69 69 69 69 69 68 69 70 70 71 70 70 69 68 68 68 68 68 68 69 69 68 66 66 68 69 69 69
40 37 36 32 31 33 27 24 25 25 23 19 20 20 22 23 19 19 21 10 38 56 59 57 61 59 58 59 61 64 64 65 64 65 67 69 71 71 71 71 71 72 72 73 72 72 73 73 73 73 73 73 73 72 72 71 71 71 72 72 71 71 70 70 70 70 70 70 69 69 69 69 69 69 69 70 71 71 71 71 70 70 69 69 69 68 69 69 69 68 66 67 67 68 69 68 68
46 35 34 29 28 27 26 27 28 27 24 23 24 24 25 26 25 26 25 12 12 48 58 60 60 57 57 63 58 64 65 65 66 68 69 70 71 71 71 71 71 72 72 73 73 73 74 73 73 73 73 73 73 72 72 71 71 71 71 70 70 71 70 70 70 70 71 70 69 69 69 69 69 69 69 70 70 71 71 71 71 70 69 69 69 69 69 69 68 68 68 68 68 68 68 68 68
39 33 37 24 25 25 22 23 23 26 26 26 26 30 40 34 33 30 23 14 39 55 57 59 59 49 57 60 60 63 64 67 68 69 69 70 70 71 71 71 71 72 72 73 72 73 73 73 73 72 73 73 73 72 72 72 71 71 70 70 71 71 71 71 70 70 71 70 70 69 69 69 69 69 69 70 71 71 71 71 71 71 70 70 70 70 69 69 68 68 68 68 68 69 68 68 68
36 30 26 27 25 22 24 21 20 18 20 22 22 20 20 22 21 22 17 30 48 57 60 61 58 52 60 59 62 62 62 67 67 68 69 69 70 70 71 71 71 71 72 72 73 72 72 74 73 72 73 73 73 73 73 73 72 71 71 71 71 71 72 72 71 71 71 71 71 70 70 70 70 70 70 71 71 71 71 71 71 70 70 70 70 70 69 68 69 68 68 69 69 68 68 68 68
33 32 31 25 25 22 21 19 24 24 24 25 22 22 22 22 21 16 12 41 46 57 59 60 59 59 61 62 63 65 66 66 66 66 67 68 70 70 70 71 71 72 72 72 72 72 72 72 73 73 73 73 73 72 72 72 72 71 71 72 72 72 72 72 71 71 71 71 71 70 70 70 70 70 71 71 71 71 71 71 70 70 70 70 70 70 69 69 69 69 69 69 70 69 68 68 68
30 30 27 26 25 20 23 23 24 25 24 22 19 19 15 21 15 30 47 49 53 57 58 58 56 60 60 61 60 63 65 65 66 66 66 68 69 70 71 71 71 72 72 72 72 72 72 72 72 72 73 73 73 72 72 72 72 72 72 72 72 72 72 72 72 71 71 71 71 71 71 71 70 71 72 71 71 71 71 70 70 70 70 70 70 69 69 69 69 69 69 69 70 69 68 68 68
30 26 24 21 22 24 28 24 23 32 28 18 19 12 13 10 10 25 42 53 55 56 51 57 61 60 57 59 63 64 64 64 65 66 67 69 70 70 70 71 71 72 72 72 72 72 72 72 71 71 72 73 73 72 72 72 72 72 72 72 72 72 72 72 72 72 72 71 72 71 71 72 72 72 71 71 71 70 70 70 70 70 70 70 70 70 70 69 69 69 69 69 70 68 68 68 67
31 28 24 18 23 22 19 20 19 19 16 14 11 12 14 11 12 29 52 52 53 51 57 61 62 62 61 62 63 62 63 64 65 67 69 69 69 69 70 70 71 72 72 72 72 72 72 72 72 71 71 71 72 72 73 72 72 72 72 72 72 72 72 72 72 72 72 72 72 72 72 72 72 71 71 71 70 70 70 70 70 70 70 70 70 70 70 69 69 68 69 69 69 68 68 68 68
33 31 30 25 22 20 20 19 18 14 10 11 12 12 19 29 28 47 52 53 54 58 61 62 63 56 58 60 60 62 63 64 66 68 69 69 69 70 69 70 70 70 71 71 72 71 71 72 71 71 71 71 71 71 71 71 72 72 72 72 72 72 72 72 72 72 72 72 72 72 72 72 72 71 71 70 70 70 70 70 70 70 70 70 70 70 69 69 69 68 68 68 69 69 68 68 67
35 24 27 25 22 19 20 19 15 12 12 12 11 12 21 38 33 44 44 53 58 59 60 58 59 55 59 61 60 63 64 65 68 68 68 68 69 69 69 69 69 69 70 70 71 71 71 71 71 71 70 70 70 70 70 70 71 72 72 72 72 72 72 72 72 72 72 72 72 71 71 71 71 71 71 70 70 70 70 70 70 70 70 70 70 70 69 69 68 68 69 68 68 68 67 67 67
26 28 24 20 20 15 15 14 10 8 10 10 10 9 23 38 32 57 59 59 58 58 61 62 62 64 61 62 63 64 64 67 68 68 68 67 67 67 68 69 69 69 69 70 71 71 71 71 71 70 70 70 70 70 70 70 71 71 72 72 72 72 72 72 72 72 71 71 71 71 71 70 70 70 70 70 70 70 70 70 70 70 70 70 70 70 69 69 68 69 69 69 69 68 67 67 67
25 26 23 21 19 15 19 13 10 9 9 8 11 11 18 42 50 54 57 57 58 59 61 61 64 64 64 65 64 64 66 66 67 67 66 66 66 66 66 67 68 68 68 69 70 70 71 71 70 70 70 70 70 70 70 70 70 71 70 70 71 71 71 71 71 70 70 70 70 70 69 70 69 69 70 70 70 70 70 70 70 70 70 70 70 70 70 69 69 69 69 69 69 68 68 67 67
26 24 24 20 19 17 20 18 15 11 11 12 12 11 10 35 51 42 51 54 56 55 58 62 62 64 64 63 63 64 65 65 66 66 65 65 65 65 65 66 67 66 66 68 69 70 70 70 70 70 70 70 70 70 70 70 69 70 70 70 70 70 70 70 70 70 69 69 69 69 70 69 69 69 69 70 70 70 70 69 69 69 70 70 70 70 70 69 69 69 68 67 68 68 66 65 65
27 23 20 20 20 18 17 15 13 12 13 13 11 9 9 7 24 21 45 53 55 53 56 58 61 62 63 63 63 64 64 65 65 65 65 65 65 65 64 65 65 66 66 68 69 69 70 70 70 70 70 70 70 70 70 70 70 69 69 69 69 69 69 70 69 69 69 69 69 70 69 69 68 68 70 70 70 69 69 69 69 69 69 69 70 69 69 69 69 68 67 66 66 65 64 64 62
25 25 21 20 20 20 20 18 16 16 16 13 11 11 8 8 10 40 52 45 44 50 56 58 60 63 63 63 63 64 64 64 64 65 65 64 64 64 64 65 66 66 67 68 69 69 69 70 70 70 70 70 70 70 70 70 70 69 69 69 69 69 69 68 67 67 68 68 69 69 69 69 68 68 68 68 67 67 67 67 67 67 67 67 68 66 67 66 65 64 64 64 63 63 62 61 60
23 26 24 21 16 16 17 16 15 14 18 11 10 6 7 10 40 51 45 37 34 43 50 59 63 64 63 62 63 63 63 63 64 64 64 63 62 63 63 64 66 66 67 67 68 68 69 69 69 69 69 69 69 70 70 70 70 69 69 69 69 69 68 68 67 66 68 68 69 69 69 68 67 67 67 67 66 66 66 66 65 65 66 66 66 65 65 65 65 65 64 63 62 62 61 60 60
19 21 18 18 18 19 20 15 16 12 11 10 9 8 9 10 15 42 39 31 30 48 54 61 64 64 64 63 63 63 63 63 63 63 63 62 62 62 62 64 65 65 66 67 68 68 69 69 69 69 69 69 70 70 70 70 69 69 69 69 69 69 68 66 67 68 68 68 68 69 68 68 67 67 66 66 66 66 66 65 65 66 66 66 66 65 65 65 65 65 64 63 62 61 61 60 60
22 21 18 17 16 16 17 16 15 14 12 11 9 12 7 7 5 23 39 35 32 25 59 64 65 64 64 63 63 63 63 63 63 63 62 62 62 61 62 63 64 64 66 67 67 68 68 69 69 69 69 69 69 70 70 69 69 69 69 69 69 69 68 67 68 68 68 68 67 68 68 68 67 66 66 66 66 65 65 65 66 67 67 66 66 65 65 65 65 64 63 62 62 62 61 61 62
19 18 17 16 16 15 14 13 13 13 13 12 11 8 6 9 6 9 13 15 57 62 64 65 64 64 64 63 63 63 63 63 63 62 62 62 62 62 62 63 64 64 64 66 67 67 68 68 69 68 69 69 69 69 69 69 69 69 68 68 68 69 68 68 68 68 68 68 67 67 68 67 67 67 66 66 65 65 65 65 66 66 66 66 65 64 65 65 65 64 63 62 62 62 62 62 63
16 17 18 15 13 13 12 9 8 10 11 12 11 9 7 9 10 8 8 37 61 64 64 64 64 64 63 63 63 62 62 62 62 62 62 62 62 61 61 63 64 64 65 65 66 67 68 68 68 68 69 69 69 69 68 69 68 68 67 68 68 69 68 68 68 67 67 67 67 67 67 67 67 66 66 66 66 65 65 65 65 65 65 65 64 64 64 65 64 63 62 62 62 62 62 63 63
16 17 17 15 13 10 8 9 8 10 10 12 9 8 8 9 7 4 22 42 62 63 63 64 63 63 63 63 62 62 61 61 61 62 62 61 61 61 61 62 63 64 64 65 66 67 67 68 68 68 68 69 69 68 68 68 68 67 67 68 68 68 68 68 68 67 67 67 67 67 67 67 67 66 66 66 66 65 65 64 64 64 64 63 63 63 63 64 64 64 63 62 62 62 63 64 63
12 11 12 11 10 9 8 8 7 9 5 9 8 7 10 11 7 6 9 57 62 62 62 63 63 63 63 63 62 62 62 61 61 61 61 60 61 61 61 62 63 63 64 64 65 66 66 66 67 67 68 68 68 68 68 68 68 68 68 68 68 68 68 68 68 68 68 67 67 67 66 66 67 66 66 65 65 64 64 64 63 63 63 63 63 62 62 62 63 63 63 62 62 63 63 63 63
14 12 10 10 8 6 8 6 8 8 7 9 8 8 7 8 7 9 11 55 60 61 61 62 62 62 63 63 63 62 62 62 61 61 61 61 61 61 61 62 63 63 64 64 65 65 65 65 66 66 67 67 68 68 68 67 68 68 68 68 68 68 68 67 67 67 68 67 67 67 66 66 67 66 66 66 66 64 64 64 63 63 63 63 62 62 62 62 64 63 63 63 63 62 62 62 63
13 11 11 7 8 5 7 12 10 9 9 8 9 7 8 7 8 9 11 58 60 60 60 61 62 62 63 63 63 62 62 62 61 61 61 61 61 61 61 62 63 63 64 64 64 64 65 65 65 66 66 67 67 67 67 67 67 68 68 68 68 67 67 67 67 67 68 68 67 67 67 67 67 66 66 66 66 64 64 63 63 63 63 62 62 63 62 62 63 63 62 62 63 62 62 62 62
10 13 10 8 5 6 7 11 9 8 12 12 8 11 7 8 7 8 11 59 59 59 60 60 60 61 62 63 63 62 61 62 61 61 61 61 61 62 62 62 63 63 64 63 64 64 65 65 65 65 66 65 67 66 66 66 67 67 67 67 67 67 67 67 67 67 68 68 68 67 67 67 67 66 66 66 65 64 63 63 63 63 63 63 62 63 62 62 63 63 62 62 61 61 62 62 62
17 7 9 17 7 10 8 14 14 6 8 11 8 14 8 7 6 7 10 55 57 58 59 60 60 60 61 62 63 62 61 61 61 61 61 61 61 62 62 62 63 63 63 64 64 64 64 64 65 64 65 65 65 66 65 66 66 67 67 67 66 67 67 67 67 67 68 68 68 67 67 67 67 66 66 66 65 65 64 63 63 63 63 63 62 63 63 62 62 62 63 62 61 61 62 61 62
18 13 18 9 10 8 4 8 10 11 10 7 7 5 7 5 6 9 23 56 55 56 58 58 59 59 61 62 62 62 61 61 61 61 61 61 61 62 62 62 63 63 63 64 64 64 64 64 64 64 64 64 65 66 65 65 65 66 66 66 66 66 66 67 67 68 68 67 67 67 67 67 66 66 66 65 65 65 64 64 63 63 64 63 63 63 63 63 62 62 62 62 62 61 61 61 62
12 19 13 18 7 9 4 8 9 8 6 5 7 6 8 8 9 7 10 47 54 53 55 57 58 59 60 61 62 61 61 61 60 60 60 61 61 62 62 63 63 63 63 64 64 64 64 63 64 64 63 64 65 65 65 65 65 66 66 66 66 66 66 66 67 67 67 67 66 66 67 67 66 66 65 65 65 64 64 64 63 64 64 63 63 63 63 63 63 62 61 61 61 61 61 61 62
11 12 13 14 14 14 9 8 9 10 11 8 10 8 7 7 8 12 21 26 39 52 52 54 56 57 59 60 61 61 61 60 60 61 60 60 61 61 62 62 62 62 63 63 63 63 63 63 64 64 64 63 64 65 65 65 65 65 65 65 66 65 66 66 66 67 67 66 66 66 67 67 67 65 65 65 64 65 64 63 63 63 64 64 63 62 63 63 63 62 62 61 61 61 61 62 62
17 15 16 12 10 11 7 9 11 12 12 13 8 11 9 20 29 33 34 38 39 38 45 52 54 56 57 58 59 60 60 60 60 59 60 60 61 61 61 61 62 62 62 63 63 62 62 63 64 64 64 64 64 65 65 65 65 64 64 64 65 65 65 65 66 66 66 66 66 66 65 65 65 65 64 64 64 64 63 63 63 63 63 63 63 62 62 62 62 61 61 61 61 62 62 63 63
14 12 11 9 8 8 9 10 11 13 12 11 12 14 20 34 39 39 43 49 50 49 41 49 50 52 55 56 58 59 60 60 57 59 59 60 61 62 61 61 61 61 61 62 62 63 63 64 64 64 64 64 64 64 64 64 63 63 64 64 64 65 65 65 65 66 66 66 66 65 65 65 65 65 65 64 64 65 64 63 63 63 63 63 63 62 62 62 62 62 62 62 61 61 62 63 62
10 10 8 9 9 8 9 10 13 17 18 15 14 24 35 39 43 45 48 50 50 51 51 49 45 50 51 55 57 59 59 58 59 58 60 60 61 62 63 62 62 62 62 62 63 63 63 64 63 63 64 64 64 64 65 64 64 64 63 63 64 65 65 65 65 65 66 66 65 65 65 65 65 65 65 64 64 64 63 63 63 63 63 62 62 63 63 64 62 62 61 61 61 61 61 62 62
15 10 13 9 9 10 12 18 20 15 12 12 17 31 33 33 39 46 48 50 51 53 54 53 53 52 50 53 55 56 57 58 58 59 60 60 61 62 63 63 62 62 62 62 63 63 63 63 63 63 63 64 64 64 65 64 65 64 64 64 64 64 65 65 66 66 66 65 65 64 64 65 65 64 64 65 64 64 63 63 63 63 63 63 62 62 63 63 62 61 61 61 61 62 62 62 62
19 14 11 9 12 13 12 22 21 16 16 17 20 27 28 34 39 44 48 51 52 53 54 54 55 54 54 53 53 55 56 57 58 59 60 60 61 62 62 62 62 62 62 62 63 63 63 63 63 63 63 64 65 65 65 64 64 64 64 64 64 64 64 65 65 65 66 65 64 64 64 64 64 64 64 64 64 64 63 63 63 63 63 63 62 62 62 62 62 61 61 61 61 60 61 61 61
22 19 15 14 15 16 15 18 20 25 22 23 20 22 24 32 38 42 46 51 52 53 53 53 54 55 56 56 56 55 55 55 57 59 59 60 60 61 62 62 62 62 62 62 62 62 62 63 63 63 64 65 65 65 65 64 65 64 64 64 64 63 64 64 64 64 65 64 64 63 63 64 64 64 64 64 65 64 64 63 63 63 63 63 62 62 62 62 62 61 61 61 61 61 60 61 61
14 22 15 16 17 16 17 20 17 17 16 20 9 11 23 29 37 40 46 50 51 52 52 52 53 54 55 56 56 57 57 56 56 58 59 59 60 61 61 62 62 62 63 63 62 62 63 63 63 64 64 65 65 65 65 64 64 63 63 62 62 62 61 62 62 62 63 63 62 63 64 64 64 64 64 64 64 64 63 63 63 63 63 63 63 63 63 62 62 61 61 61 61 62 61 60 60
11 12 16 16 14 16 16 14 16 12 10 18 21 11 14 20 37 39 43 49 49 51 52 52 53 53 54 55 55 56 56 57 57 58 59 60 60 61 61 62 62 60 61 62 62 63 63 63 63 64 64 64 64 65 65 64 64 64 63 63 62 61 61 61 63 63 64 64 64 63 63 64 65 64 64 64 63 64 63 63 63 63 63 63 63 62 62 62 62 62 62 61 61 62 62 60 60
10 13 16 13 13 15 17 14 13 14 24 27 21 17 15 23 34 38 43 47 48 49 51 51 52 52 53 54 54 55 54 55 55 56 56 57 58 59 59 59 59 59 60 61 61 61 61 62 62 63 63 64 64 65 65 64 64 64 63 63 62 61 61 60 61 63 63 64 64 63 63 63 64 64 64 63 63 63 63 63 63 63 63 63 64 63 62 62 62 62 62 62 62 62 62 60 60
13 19 17 14 14 14 16 13 16 15 14 8 16 22 19 19 29 41 44 45 47 48 50 51 51 52 53 53 53 53 54 54 53 54 55 56 56 58 58 58 59 59 59 59 59 60 61 61 62 62 62 64 65 64 64 64 64 64 62 60 61 61 61 61 62 62 62 63 63 62 62 63 63 64 64 63 63 63 64 63 62 62 62 63 64 63 63 63 62 62 62 61 61 62 62 62 61
12 18 21 21 22 20 14 17 15 16 11 9 16 21 15 24 34 43 44 45 46 48 50 51 51 52 52 51 51 51 51 52 52 53 53 54 55 56 57 59 58 58 58 58 58 59 60 61 61 60 61 63 64 64 64 64 64 63 60 60 60 60 60 60 61 61 62 62 62 61 62 62 62 62 63 63 63 63 63 63 62 62 62 62 63 63 62 62 62 62 62 62 62 61 61 61 61
17 15 14 15 20 22 26 22 18 17 6 12 16 21 20 20 32 42 43 43 47 48 49 50 50 50 51 51 49 49 49 49 50 51 52 52 53 54 55 55 56 58 58 58 58 59 60 60 59 59 60 62 63 64 64 64 64 62 60 60 60 60 60 60 60 60 61 61 61 61 61 62 62 62 63 63 63 63 62 63 62 62 62 63 63 63 62 62 63 62 62 62 61 61 61 61 61
15 15 14 13 15 18 17 19 19 9 8 16 21 21 15 14 32 44 47 48 49 49 48 49 49 49 49 49 48 48 48 48 48 48 49 50 51 51 52 53 53 54 55 56 57 58 58 59 59 58 59 60 61 61 60 61 62 61 61 60 60 60 60 60 60 60 61 61 61 61 62 62 62 62 62 62 62 62 62 62 63 62 62 62 62 63 63 62 63 63 62 61 61 61 61 61 60
14 16 14 13 10 14 6 12 5 5 9 14 21 19 26 35 39 47 47 48 49 49 49 49 48 47 48 48 47 47 47 47 47 47 47 47 48 49 50 51 51 52 52 53 54 56 57 58 58 58 59 60 60 60 60 59 60 61 60 60 60 60 60 60 60 60 61 61 62 61 61 61 62 61 61 61 62 62 62 62 62 62 62 62 63 63 63 62 62 62 62 61 61 61 61 61 60
13 13 15 12 7 4 1 8 10 13 14 17 17 24 31 40 45 48 47 49 49 48 48 47 47 47 46 46 46 46 46 46 46 46 46 46 46 47 48 49 49 50 51 52 52 53 55 56 58 58 58 59 60 60 60 60 60 60 61 60 60 60 60 60 61 61 61 62 62 62 61 61 61 61 61 61 62 62 62 62 62 62 62 62 62 63 63 63 62 62 62 61 61 61 62 61 61
12 14 13 15 12 7 1 10 3 8 12 17 26 24 29 36 39 49 49 50 48 47 46 46 46 46 46 45 45 45 45 45 45 45 45 45 46 46 47 48 48 49 50 51 51 52 53 54 56 57 58 58 59 58 59 60 60 60 60 60 60 60 60 60 61 61 61 61 62 62 62 62 61 61 61 61 63 62 62 62 62 62 62 62 62 62 63 62 62 62 62 62 62 61 61 61 61
16 14 12 13 12 19 10 15 15 14 15 17 28 26 36 39 45 48 50 47 46 46 46 45 44 45 44 44 44 44 44 44 44 44 45 44 45 45 46 46 47 48 48 49 50 51 52 53 55 55 57 59 59 60 60 60 59 60 60 60 60 60 61 61 61 61 61 62 61 61 61 61 62 61 61 62 62 62 62 62 62 62 62 62 62 62 62 62 62 62 62 61 61 62 61 61 61
18 11 12 17 18 17 15 14 19 15 21 22 23 37 41 44 47 47 48 46 45 45 44 44 43 44 44 44 44 44 44 44 44 44 44 44 44 44 45 46 46 47 47 48 49 50 51 52 53 54 54 56 58 60 60 60 59 59 59 59 60 60 60 60 61 61 61 62 62 61 61 61 62 61 61 62 62 62 62 62 62 62 62 62 61 61 62 61 61 62 61 61 61 61 61 61 61
14 13 14 20 21 20 15 10 11 7 11 15 31 34 36 36 33 46 46 44 44 43 43 43 43 43 43 43 43 43 43 43 43 43 43 43 44 44 44 45 45 45 46 47 47 49 50 50 51 53 53 54 56 56 59 61 60 60 60 60 60 60 60 61 61 61 62 62 62 61 61 61 61 61 62 62 62 62 61 63 62 62 62 61 61 61 61 61 61 61 61 61 61 61 61 61 61
13 15 17 15 11 8 15 15 4 3 9 22 32 33 36 36 35 42 43 43 43 43 42 42 42 42 42 42 42 42 42 43 43 43 43 43 43 43 43 44 44 44 45 46 46 47 47 47 49 50 50 52 52 54 56 57 60 61 60 60 60 60 61 61 62 62 61 61 61 61 61 61 61 61 61 61 61 61 61 62 61 61 61 61 61 61 61 61 61 61 61 61 61 61 61 60 60
19 17 15 27 20 19 13 13 15 11 2 21 29 34 32 39 41 44 44 43 43 42 42 42 42 42 42 42 42 42 42 42 42 42 42 42 42 42 43 43 43 43 44 45 45 45 45 46 46 46 47 49 50 51 53 54 57 60 61 61 61 61 61 61 61 61 61 61 61 61 60 60 61 61 61 61 61 61 61 61 61 61 61 61 61 61 61 61 61 61 61 60 61 61 61 60 60
15 18 19 19 23 24 19 22 14 12 12 18 26 26 32 38 44 45 44 43 43 42 41 41 42 42 42 42 42 41 41 41 41 41 41 42 42 42 42 42 43 43 44 44 44 44 44 44 44 45 46 46 47 49 50 52 54 58 61 61 61 61 61 61 61 61 61 61 61 61 60 61 61 60 61 61 61 61 61 61 61 61 61 60 60 60 61 61 61 61 61 61 61 61 60 60 60
18 24 22 18 17 16 11 9 26 22 19 20 25 23 30 41 45 45 43 43 42 42 41 41 41 41 41 41 41 41 41 41 41 41 41 41 41 41 41 41 42 42 42 43 43 43 43 43 44 44 45 45 46 47 48 49 52 56 59 61 61 61 62 62 61 60 60 61 61 60 60 60 60 60 61 61 61 61 61 61 61 61 60 60 60 60 60 61 61 60 61 61 61 61 61 60 60